Location: Unspecified
(0.0000°N, 0.0000°E)
Time: 08:30:10
(UTC+00:00)

AO-7 - Visible Passes

Search period start: 19 March 2019 00:00
Search period end: 29 March 2019 00:00
Orbit: 1440 x 1459 km, 101.7° (Epoch: 18 March)

Date Brightness Start Highest point End Pass type
(mag) Time Alt. Az. Time Alt. Az. Time Alt. Az.
19 Mar ? 02:44:09 10° NNE 02:45:15 15° NNE 02:45:15 15° NNE visible
19 Mar ? 04:39:05 10° NNW 04:40:10 13° NW 04:40:10 13° NW visible
20 Mar ? 03:36:46 10° N 03:39:18 22° N 03:39:18 22° N visible
21 Mar ? 02:37:20 10° NE 02:38:26 15° NE 02:38:26 15° NE visible
21 Mar ? 04:31:34 10° NNW 04:33:23 15° NW 04:33:23 15° NW visible
22 Mar ? 03:29:42 10° N 03:32:30 24° N 03:32:30 24° N visible
23 Mar ? 02:30:34 10° NE 02:31:38 14° NE 02:31:38 14° NE visible
23 Mar ? 04:24:08 10° NNW 04:26:33 18° NW 04:26:33 18° NW visible
24 Mar ? 03:22:40 10° N 03:25:41 26° N 03:25:41 26° N visible
25 Mar ? 02:23:50 10° NE 02:24:49 14° NE 02:24:49 14° NE visible
25 Mar ? 04:16:46 10° NNW 04:19:45 21° NNW 04:19:45 21° NNW visible
26 Mar ? 03:15:40 10° NNE 03:18:52 27° NNE 03:18:52 27° NNE visible
27 Mar ? 02:17:10 10° NE 02:18:00 13° NE 02:18:00 13° NE visible
27 Mar ? 04:09:28 10° NNW 04:12:56 24° NNW 04:12:56 24° NNW visible
28 Mar ? 03:08:42 10° NNE 03:12:03 28° NNE 03:12:03 28° NNE visible
